Simultaneous Nadir Overpasses (SNOs) Predictions

Prediction of SNOs between AQUA and GOES-15 Satellite Orbit:

Table of predicted SNOs for the next 14.0 days since TLE Epoch: 3/8/2025
Index Date Time (AQUA) AQUA Lat,Lon GOES-15 Lat,Lon Distance(km) Time Diff (sec)
1 03/09/2025 22:26:23 -0.00, 61.66 0.09, 61.26 45.55 80
2 03/10/2025 10:45:53 -1.01, 56.95 -0.09, 61.35 499.96 80
3 03/12/2025 10:26:19 -0.01, 61.75 -0.09, 61.35 45.19 80
4 03/12/2025 22:45:39 1.02, 57.07 0.09, 61.26 477.40 80
5 03/14/2025 22:26:05 -0.04, 61.85 0.09, 61.25 68.31 80
6 03/15/2025 10:45:34 -0.98, 57.15 -0.09, 61.34 476.62 80
7 03/17/2025 10:25:58 0.04, 61.95 -0.09, 61.34 68.97 80
8 03/17/2025 22:45:19 0.93, 57.26 0.09, 61.26 453.99 80
9 03/19/2025 22:25:42 -0.10, 62.07 0.10, 61.27 91.55 80
10 03/20/2025 10:45:10 -0.94, 57.37 -0.09, 61.35 453.14 80
11 03/22/2025 10:25:31 0.05, 62.18 -0.10, 61.37 91.97 80
